Regional Weather Roundup
Issued by NWS

Home | Current Version | Previous Version | Text Only | Print | Product List | Glossary On
Versions: 1 2 3 4 5 6 7 8 9 10 11 12 13 14 15 16 17 18 19 20 21 22 23 24 25 26 27 28 29 30 31 32 33 34 35 36 37 38 39 40 41 42 43 44 45 46 47 48 49 50
000
ASUS43 KBIS 250820
RWRND

NORTH DAKOTA REGIONAL WEATHER ROUNDUP
NATIONAL WEATHER SERVICE BISMARCK ND
300 AM CDT FRI JUL 25 2014

NOTE: "FAIR" INDICATES FEW OR NO CLOUDS BELOW 12,000 FEET WITH NO
SIGNIFICANT WEATHER AND/OR OBSTRUCTIONS TO VISIBILITY.


NDZ001>003-009>011-017-250900-
NORTHWEST NORTH DAKOTA

CITY           SKY/WX    TMP DP  RH WIND       PRES   REMARKS
WILLISTON      CLEAR     56  52  86 NW3       29.83S
MINOT          CLOUDY    67  65  93 SE8       29.72F
MINOT AFB      CLOUDY    67  67 100 SE15      29.72S
$$

NDZ018>021-031>035-040>046-250900-
SOUTHWEST NORTH DAKOTA

CITY           SKY/WX    TMP DP  RH WIND       PRES   REMARKS
BISMARCK       PTCLDY    68  64  87 N7        29.74R
DICKINSON      CLEAR     60  56  86 NW17      29.83R
GARRISON         N/A     67  65  93 NE6       29.74S
HETTINGER ARPT CLEAR     63  57  81 NW17G26   29.83R
$$

NDZ004>008-012>016-024-026-027-054-250900-
NORTHEAST NORTH DAKOTA

CITY           SKY/WX    TMP DP  RH WIND       PRES   REMARKS
GRAND FORKS    CLOUDY    70  61  73 SE8       29.76F
GRND FRKS AFB  CLOUDY    68  65  91 SE8       29.76F
DEVILS LAKE    CLOUDY    66  61  82 SE14      29.72F
$$

NDZ022-023-025-028>030-036>039-047>053-250900-
SOUTHEAST NORTH DAKOTA

CITY           SKY/WX    TMP DP  RH WIND       PRES   REMARKS
FARGO          CLOUDY    69  61  75 SE12      29.74S
JAMESTOWN      MOCLDY    66  62  87 E8        29.72R
$$



USA.gov is the U.S. government's official web portal to all federal, state and local government web resources and services.